Regional Weather Roundup
Issued by NWS

Home | Current Version | Previous Version | Text Only | Print | Product List | Glossary Off
Versions: 1 2 3 4 5 6 7 8 9 10 11 12 13 14 15 16 17 18 19 20 21 22 23 24 25 26 27 28 29 30 31 32 33 34 35 36 37 38 39 40 41 42 43 44 45 46 47 48 49 50

000
ASUS43 KLOT 030558
RWRIL

ILLINOIS REGIONAL WEATHER ROUNDUP
NATIONAL WEATHER SERVICE CHICAGO/ROMEOVILLE IL
100 AM CDT WED SEP 03 2014

NOTE: "FAIR" INDICATES FEW OR NO CLOUDS BELOW 12,000 FEET WITH NO
SIGNIFICANT WEATHER AND/OR OBSTRUCTIONS TO VISIBILITY.

* THESE STATIONS ARE NOT UNDER NWS QUALITY CONTROL. THEY ALSO MAY NOT
  REPORT WEATHER SUCH AS PRECIPITATION OR FOG.

ILZ001-002-007-009-015-016-024-030700-
NORTHWEST ILLINOIS

CITY           SKY/WX    TMP DP  RH WIND       PRES   REMARKS
MOLINE         FAIR      61  59  93 CALM      29.99S
6HR MIN TEMP:  61; 6HR MAX TEMP:  77;

$$

ILZ003-004-008-010-011-017-018-030700-
NORTH CENTRAL ILLINOIS

CITY           SKY/WX    TMP DP  RH WIND       PRES   REMARKS
ROCKFORD       NOT AVBL
$$

ILZ005-006-012>014-019>023-030700-
NORTHEAST ILLINOIS

CITY           SKY/WX    TMP DP  RH WIND       PRES   REMARKS
CHICAGO-OHARE  FAIR      68  59  73 W3        29.98R
6HR MIN TEMP:  68; 6HR MAX TEMP:  77;

CHICAGO-MIDWAY FAIR      71  62  73 SW7       29.98R
6HR MIN TEMP:  70; 6HR MAX TEMP:  80;

AURORA         FAIR      60  58  92 CALM      30.00R FOG
6HR MIN TEMP:  60; 6HR MAX TEMP:  73;

WAUKEGAN       FAIR      64  60  87 SW3       29.97R
6HR MIN TEMP:  61; 6HR MAX TEMP:  74;

DUPAGE AIRPORT FAIR      64  61  90 CALM      29.99R
6HR MIN TEMP:  63; 6HR MAX TEMP:  76;

WHEELING       FAIR      66  60  81 CALM      29.99R
6HR MIN TEMP:  66; 6HR MAX TEMP:  79;

NORTHERLY ISL    N/A     73  60  63 W6          N/A
$$

LMZ740>746-030700-
SOUTHERN LAKE MICHIGAN

STATION/POSITION SKY/WX   TEMP    WIND        PRES    VSBY  WAVE
                          AIR SEA DIR/SP/G                  HT/PER
                          (F)     (DEG/KT/KT) (MB)    (MI)  (FT/S)
SOUTHERN BUOY              72 71  210/  6/  8 1014.2R         0
WAUKEGAN HARBOR            70     270/  4/  6   N/A
HARRISON CRIB              75     280/  5/  5   N/A
BURNHAM HARBOR             73     240/  3/  5   N/A
CALUMET HARBOR             71     220/  2/  5 1014.1R
MICHIGAN CITY              70     150/  5/  7   N/A
MICHIGAN CITY 6N           71 72  180/  8/ 10   N/A           1/ 2
ST. JOSEPH                 71 73  180/  8/ 10   N/A           1
$$

ILZ025>027-034>036-040-047-049-050-058-095>099-030700-
WEST-CENTRAL ILLINOIS

CITY           SKY/WX    TMP DP  RH WIND       PRES   REMARKS
$$

ILZ028>032-037-038-041>044-048-051>054-059>061-030700-
CENTRAL ILLINOIS

CITY           SKY/WX    TMP DP  RH WIND       PRES   REMARKS
PEORIA         NOT AVBL
SPRINGFIELD    FAIR      68  65  90 SW3       30.01S
6HR MIN TEMP:  68; 6HR MAX TEMP:  81; 6HR PCP: TRACE;

TAYLORVILLE    NOT AVBL
$$

ILZ033-039-045-046-055>057-062-063-030700-
EAST-CENTRAL ILLINOIS

CITY           SKY/WX    TMP DP  RH WIND       PRES   REMARKS
CHAMPAIGN      FAIR      66  65  96 S7        30.01F
$$

ILZ079-100>102-030700-
SOUTHWEST ILLINOIS

CITY           SKY/WX    TMP DP  RH WIND       PRES   REMARKS
BELLEVILLE     FAIR      66  66 100 CALM      30.02S
$$

ILZ064>066-069>071-074>076-080>082-084>086-088>090-092>094-030700-
SOUTH-CENTRAL ILLINOIS

CITY           SKY/WX    TMP DP  RH WIND       PRES   REMARKS
CARBONDALE     FOG       67  66  97 CALM      30.01F VSB 1/2
6HR MIN TEMP:  67; 6HR MAX TEMP:  78;

$$

ILZ067-068-072-073-078-083-087-091-030700-
SOUTHEAST ILLINOIS

CITY           SKY/WX    TMP DP  RH WIND       PRES   REMARKS
$$

ABBREVIATIONS USED IN REMARKS
   TC - TEMPERATURE IN CELSIUS
  WCI - WIND CHILL INDEX
   HX - HEAT INDEX
  VSB - VISIBILITY
$$



USA.gov is the U.S. government's official web portal to all federal, state and local government web resources and services.